Regional Weather Roundup
Issued by NWS Bismarck, ND

Home | Current Version | Previous Version | Text Only | Print | Product List | Glossary On
Versions: 1 2 3 4 5 6 7 8 9 10 11 12 13 14 15 16 17 18 19 20 21 22 23 24 25 26 27 28 29 30 31 32 33 34 35 36 37 38 39 40 41 42 43 44 45 46 47 48 49 50
000
ASUS43 KBIS 141510
RWRBIS

NWR BROADCAST TEXT
NATIONAL WEATHER SERVICE BISMARCK ND
900 AM CST THU DEC 14 2017

NOTE: "FAIR" INDICATES FEW OR NO CLOUDS BELOW 12,000 FEET WITH NO
SIGNIFICANT WEATHER AND/OR OBSTRUCTIONS TO VISIBILITY.


CITY           SKY/WX    TMP DP  RH WIND       PRES   REMARKS
WILLISTON      CLOUDY    31  25  78 N10       30.19S
MINOT          CLOUDY    31  24  75 NW13      30.09R
MINOT AFB      CLOUDY    30  24  78 N10       30.08R
BISMARCK       CLOUDY    33  28  81 N15G28    30.08R
DICKINSON      LGT SNOW  31  27  85 NW18G29   30.11R FOG     WCI  19
GARRISON         N/A     31  23  72 N21G33    30.09R WCI  18
HETTINGER ARPT CLOUDY    31  27  85 NW21G30   30.12R WCI  18
JAMESTOWN      CLOUDY    28  26  92 NW6       30.00R
CARRINGTON     MIX PCPN  30  28  93 N13G18    30.05R
HAZEN          CLOUDY    32  27  80 NW22G29   30.13R WCI  19
LINTON           N/A     34  28  80 N14G21    30.06R
MANDAN         MIX PCPN  32  30  93 N18       30.08R
OAKES            N/A     27  27 100 SW5       30.00R
RUGBY          CLOUDY    27  25  93 N14       30.06R WCI  15
STANLEY        CLOUDY    28  25  86 NW15G26   30.14R WCI  17
TIOGA          CLOUDY    27  27 100 NW17      30.14S WCI  14
WATFORD CITY   CLOUDY    30  25  80 N15G21    30.17R WCI  19
$$

CITY           SKY/WX    TMP DP  RH WIND       PRES   REMARKS
GRAND FORKS    FLURRIES  23  19  85 NW12      30.04R WCI  12
GRAND FORKS AF FLURRIES  23  19  84 N7        30.04R WCI  15
DEVILS LAKE    CLOUDY    23  21  92 N12       30.05R WCI  12
FARGO          CLOUDY    21  18  88 W5        30.04R WCI  15
CANDO          CLOUDY    25  25 100 N8        30.08R FOG     WCI  16
CAVALIER       CLOUDY    19  16  86 N15       30.06R WCI   5
GRAFTON        CLOUDY    21  18  86 N22G29    30.07R WCI   5
GWINNER          N/A     25  23  93 CALM      30.00S
LANGDON        CLOUDY    21  21 100 N13       30.02R WCI   9
ROLLA          CLOUDY    23  23 100 NW9       30.04R WCI  13
WALHALLA       FAIR      19  21 100 NW15      30.06R WCI   5
$$

CITY           SKY/WX    TMP DP  RH WIND       PRES   REMARKS
ABERDEEN       CLOUDY    29  28  96 W3        30.02R
MOBRIDGE       CLOUDY    36  29  75 NW20G28   30.02R
BUFFALO          N/A     31  27  85 NW30      30.08R WCI  16
RAPID CITY     CLOUDY    34  24  67 NW30G39   30.13R
GLASGOW        CLOUDY    32  26  78 NW12      30.27R
SIDNEY         MOCLDY    32  28  85 NW12      30.21R
WOLF POINT     CLOUDY    36  28  73 NW9       30.26S
GLENDIVE       CLOUDY    32  27  81 NW21      30.22R WCI  20
MILES CITY     CLOUDY    34  24  67 NW9       30.28R
BAKER          CLOUDY    30  29  96 NW20G29   30.19R WCI  17
$$

CITY           SKY/WX    TMP DP  RH WIND       PRES   REMARKS
BILLINGS       PTCLDY    29  20  69 SW3       30.32S
GREAT FALLS    CLOUDY    26  21  81 SW13      30.35S WCI  15
REGINA         MOCLDY    28  25  86 W10       30.14F WCI  19
ESTEVAN        MOCLDY    27  23  86 NW12      30.14S WCI  16
$$





USA.gov is the U.S. government's official web portal to all federal, state and local government web resources and services.